• In Belgium
  • List of Countries
  • For 7 days
  • Water Temperature
  • Satellite Maps
  • Weather Map
  • Weather Widgets
  • user-avatar
    Login

    Hourly Weather Sevan

    Today, 22 July, Sunday

    Time Temperature Precipitation Wind Pressure Humidity
    00:00 +18°C° 0.1 mm 3 mps 639 mmHg 78%
    01:00 +18°C° 0.2 mm 3 mps 639 mmHg 80%
    02:00 +17°C° 0.2 mm 3 mps 639 mmHg 81%
    03:00 +17°C° 0.2 mm 3 mps 639 mmHg 83%
    04:00 +18°C° 0.2 mm 2 mps 639 mmHg 83%
    05:00 +18°C° 0.2 mm 2 mps 639 mmHg 82%
    06:00 +18°C° 0.2 mm 2 mps 640 mmHg 82%
    07:00 +20°C° 0.1 mm 2 mps 640 mmHg 75%
    08:00 +21°C° 0.1 mm 2 mps 640 mmHg 69%
    09:00 +24°C° 0.1 mm 2 mps 640 mmHg 62%
    10:00 +25°C° 0.2 mm 2 mps 640 mmHg 59%
    11:00 +25°C° 0.2 mm 2 mps 640 mmHg 55%
    12:00 +26°C° 0.2 mm 2 mps 640 mmHg 52%
    13:00 +27°C° 0.3 mm 3 mps 640 mmHg 50%
    14:00 +27°C° 0.3 mm 3 mps 640 mmHg 49%
    15:00 +28°C° 0.3 mm 3 mps 640 mmHg 48%
    16:00 +27°C° 0.4 mm 3 mps 639 mmHg 51%
    17:00 +26°C° 0.4 mm 3 mps 639 mmHg 53%
    18:00 +25°C° 0.4 mm 2 mps 639 mmHg 56%
    19:00 +24°C° 0.6 mm 2 mps 639 mmHg 63%
    20:00 +21°C° 0.6 mm 2 mps 639 mmHg 69%
    21:00 +20°C° 0.6 mm 2 mps 639 mmHg 75%
    22:00 +19°C° 0.4 mm 2 mps 639 mmHg 77%
    23:00 +18°C° 0.4 mm 2 mps 639 mmHg 80%

    Tomorrow, 23 July, Monday

    Time Temperature Precipitation Wind Pressure Humidity
    00:00 +18°C° 0.4 mm 2 mps 639 mmHg 82%
    01:00 +18°C° 0.1 mm 2 mps 639 mmHg 83%
    02:00 +17°C° 0.1 mm 2 mps 638 mmHg 84%
    03:00 +17°C° 0.1 mm 2 mps 638 mmHg 86%
    04:00 +18°C° 0.1 mm 2 mps 638 mmHg 85%
    05:00 +18°C° 0.1 mm 2 mps 638 mmHg 84%
    06:00 +18°C° 0.1 mm 2 mps 638 mmHg 83%
    07:00 +19°C° 0.3 mm 2 mps 639 mmHg 76%
    08:00 +21°C° 0.3 mm 2 mps 639 mmHg 70%
    09:00 +23°C° 0.3 mm 2 mps 639 mmHg 63%
    10:00 +24°C° 0.5 mm 2 mps 639 mmHg 59%
    11:00 +25°C° 0.5 mm 2 mps 639 mmHg 54%
    12:00 +27°C° 0.5 mm 2 mps 639 mmHg 50%
    13:00 +27°C° 0.4 mm 2 mps 639 mmHg 48%
    14:00 +28°C° 0.4 mm 2 mps 638 mmHg 47%
    15:00 +28°C° 0.4 mm 2 mps 638 mmHg 45%
    16:00 +27°C° 0.7 mm 2 mps 638 mmHg 48%
    17:00 +26°C° 0.7 mm 2 mps 638 mmHg 52%
    18:00 +26°C° 0.7 mm 2 mps 638 mmHg 55%
    19:00 +24°C° 0.8 mm 2 mps 638 mmHg 60%
    20:00 +21°C° 0.8 mm 2 mps 638 mmHg 65%
    21:00 +20°C° 0.8 mm 2 mps 638 mmHg 69%
    22:00 +19°C° 0.3 mm 2 mps 638 mmHg 71%
    23:00 +19°C° 0.3 mm 2 mps 638 mmHg 73%

    Day after tomorrow, 24 July, Tuesday

    Time Temperature Precipitation Wind Pressure Humidity
    00:00 +19°C° 0.3 mm 1 mps 638 mmHg 75%
    01:00 +19°C° 0.3 mm 1 mps 638 mmHg 77%
    02:00 +18°C° 0.3 mm 1 mps 638 mmHg 78%
    03:00 +18°C° 0.3 mm 1 mps 638 mmHg 80%
    04:00 +18°C° 0.1 mm 1 mps 638 mmHg 78%
    05:00 +19°C° 0.1 mm 1 mps 638 mmHg 77%
    06:00 +19°C° 0.1 mm 1 mps 638 mmHg 75%
    07:00 +22°C° 0 mm 1 mps 639 mmHg 65%
    08:00 +24°C° 0 mm 1 mps 639 mmHg 56%
    09:00 +26°C° 0 mm 2 mps 640 mmHg 46%
    10:00 +27°C° 0 mm 2 mps 640 mmHg 42%
    11:00 +29°C° 0 mm 2 mps 640 mmHg 38%
    12:00 +30°C° 0 mm 2 mps 640 mmHg 34%
    13:00 +31°C° 0 mm 2 mps 640 mmHg 32%
    14:00 +31°C° 0 mm 2 mps 640 mmHg 31%
    15:00 +32°C° 0 mm 2 mps 639 mmHg 30%
    16:00 +31°C° 0 mm 2 mps 639 mmHg 33%
    17:00 +30°C° 0 mm 2 mps 639 mmHg 37%
    18:00 +29°C° 0 mm 2 mps 639 mmHg 41%
    19:00 +27°C° 0 mm 2 mps 639 mmHg 48%
    20:00 +25°C° 0 mm 2 mps 639 mmHg 54%
    21:00 +23°C° 0 mm 2 mps 639 mmHg 61%
    22:00 +23°C° 0 mm 2 mps 639 mmHg 63%
    23:00 +21°C° 0 mm 2 mps 639 mmHg 66%

    25 July, Wednesday

    Time Temperature Precipitation Wind Pressure Humidity
    00:00 +21°C° 0 mm 2 mps 639 mmHg 68%
    01:00 +20°C° 0 mm 2 mps 639 mmHg 67%
    02:00 +20°C° 0 mm 2 mps 639 mmHg 67%
    03:00 +20°C° 0 mm 2 mps 639 mmHg 66%
    04:00 +20°C° 0 mm 2 mps 639 mmHg 64%
    05:00 +22°C° 0 mm 1 mps 640 mmHg 62%
    06:00 +22°C° 0 mm 1 mps 640 mmHg 60%
    07:00 +24°C° 0 mm 2 mps 640 mmHg 52%
    08:00 +27°C° 0 mm 2 mps 641 mmHg 44%
    09:00 +29°C° 0 mm 2 mps 641 mmHg 36%
    10:00 +31°C° 0 mm 2 mps 641 mmHg 33%
    11:00 +32°C° 0 mm 2 mps 641 mmHg 31%
    12:00 +34°C° 0 mm 3 mps 641 mmHg 28%
    13:00 +35°C° 0 mm 3 mps 641 mmHg 27%
    14:00 +35°C° 0 mm 3 mps 641 mmHg 27%
    15:00 +35°C° 0 mm 3 mps 641 mmHg 27%
    16:00 +34°C° 0 mm 3 mps 640 mmHg 32%
    17:00 +33°C° 0 mm 3 mps 640 mmHg 37%
    18:00 +32°C° 0 mm 2 mps 639 mmHg 41%
    19:00 +29°C° 0.1 mm 2 mps 639 mmHg 50%
    20:00 +27°C° 0.1 mm 3 mps 639 mmHg 58%
    21:00 +25°C° 0.1 mm 3 mps 639 mmHg 67%
    22:00 +24°C° 0 mm 3 mps 639 mmHg 68%
    23:00 +24°C° 0 mm 3 mps 639 mmHg 69%

    26 July, Thursday

    Time Temperature Precipitation Wind Pressure Humidity
    00:00 +22°C° 0 mm 3 mps 639 mmHg 71%
    01:00 +22°C° 0 mm 3 mps 639 mmHg 71%
    02:00 +21°C° 0 mm 2 mps 639 mmHg 71%
    03:00 +21°C° 0 mm 2 mps 639 mmHg 71%
    04:00 +21°C° 0 mm 2 mps 639 mmHg 70%
    05:00 +23°C° 0 mm 2 mps 640 mmHg 69%
    06:00 +23°C° 0 mm 2 mps 640 mmHg 68%
    07:00 +25°C° 0 mm 2 mps 640 mmHg 60%
    08:00 +27°C° 0 mm 2 mps 641 mmHg 52%
    09:00 +30°C° 0 mm 2 mps 641 mmHg 43%
    10:00 +31°C° 0 mm 2 mps 641 mmHg 40%
    11:00 +34°C° 0 mm 2 mps 641 mmHg 37%
    12:00 +35°C° 0 mm 3 mps 641 mmHg 34%
    13:00 +35°C° 0.6 mm 3 mps 641 mmHg 34%
    14:00 +36°C° 0.6 mm 3 mps 641 mmHg 35%
    15:00 +36°C° 0.6 mm 4 mps 641 mmHg 35%
    16:00 +35°C° 1 mm 4 mps 640 mmHg 40%
    17:00 +33°C° 1 mm 3 mps 640 mmHg 44%
    18:00 +31°C° 1 mm 3 mps 640 mmHg 49%
    19:00 +29°C° 0.1 mm 3 mps 640 mmHg 56%
    20:00 +27°C° 0.1 mm 3 mps 640 mmHg 63%
    21:00 +25°C° 0.1 mm 3 mps 640 mmHg 70%
    22:00 +25°C° 0 mm 3 mps 640 mmHg 72%
    23:00 +24°C° 0 mm 3 mps 640 mmHg 73%

    27 July, Friday

    Time Temperature Precipitation Wind Pressure Humidity
    00:00 +22°C° 0 mm 3 mps 640 mmHg 75%
    01:00 +22°C° 0 mm 3 mps 640 mmHg 76%
    02:00 +21°C° 0 mm 3 mps 640 mmHg 76%
    03:00 +21°C° 0 mm 3 mps 640 mmHg 77%
    04:00 +21°C° 0 mm 3 mps 640 mmHg 75%
    05:00 +21°C° 0 mm 2 mps 640 mmHg 72%
    06:00 +21°C° 0 mm 2 mps 641 mmHg 70%
    07:00 +24°C° 0 mm 2 mps 641 mmHg 63%
    08:00 +27°C° 0 mm 2 mps 641 mmHg 55%
    09:00 +29°C° 0 mm 2 mps 642 mmHg 47%
    10:00 +30°C° 0 mm 2 mps 642 mmHg 44%
    11:00 +31°C° 0 mm 2 mps 642 mmHg 41%
    12:00 +34°C° 0 mm 3 mps 642 mmHg 38%
    13:00 +34°C° 0 mm 3 mps 641 mmHg 38%
    14:00 +34°C° 0 mm 4 mps 641 mmHg 38%
    15:00 +34°C° 0 mm 4 mps 641 mmHg 38%
    16:00 +33°C° 0.1 mm 4 mps 641 mmHg 42%
    17:00 +32°C° 0.1 mm 4 mps 640 mmHg 45%
    18:00 +30°C° 0.1 mm 5 mps 640 mmHg 48%
    19:00 +28°C° 0 mm 4 mps 640 mmHg 50%
    20:00 +26°C° 0 mm 4 mps 640 mmHg 52%
    21:00 +25°C° 0 mm 3 mps 640 mmHg 54%
    22:00 +24°C° 0 mm 3 mps 640 mmHg 55%
    23:00 +22°C° 0 mm 3 mps 640 mmHg 55%
    Show more